Location: アルンシュタイン
(50.0000°N, 10.0000°E)
Time: 05:12:19
(UTC+01:00)

Envisat - Pass Details

Date: 26 October 2021
Orbit: 764 x 766 km, 98.2° (Epoch: 04 December)

Event Time Altitude Azimuth Distance (km) Brightness Sun altitude
Rises 05:02:59 0° 29° (NNE) 3,245 6.8 -28.8°
Reaches altitude 10° 05:06:23 10° 52° (NE) 2,312 6.3 -28.3°
Maximum altitude 05:09:12 15° 86° (E) 1,989 6.0 -27.8°
Drops below altitude 10° 05:12:01 10° 121° (ESE) 2,301 6.0 -27.4°
Sets 05:15:22 0° 144° (SE) 3,220 6.5 -26.9°
